User: anonymous   Login
Location: Ash Swamp
(41.5170°N, 74.6157°W)
Time: 07:22:56
(UTC+00:00)
Language:

Cosmos 1850 Rocket - Orbit

View from above orbital plane
View from above orbital plane
View from above satellite
View from above satellite

Ground track
Ground track

The orbit data is extracted from the following two-line orbital elements,

1 18096U 87049B   20273.20062779 +.00000037 +00000-0 +21439-4 0  9992
2 18096 074.0435 181.8515 0020751 056.8075 303.5064 14.36553270744039
Epoch (UTC): 29 September 2020 04:48:54
Eccentricity: 0.0020751
inclination: 74.0435°
perigee height: 755 km
apogee height: 785 km
right ascension of ascending node: 181.8515°
argument of perigee: 56.8075°
revolutions per day: 14.36553270
mean anomaly at epoch: 303.5064°
orbit number at epoch: 74403

The dashed part of the orbit path shows where the satellite is in the earth's shadow,  

DLR